User: anonymous   Login
Location: Unspecified
(48.2082°N, 0.0000°E)
Time: 01:07:57
(UTC+00:00)
Language:

Courier 1B Rocket - Orbit

View from above orbital plane
View from above orbital plane
View from above satellite
View from above satellite

Ground track
Ground track

The orbit data is extracted from the following two-line orbital elements,

1    59U 60013B   19165.77075974 +.00000090 +00000-0 +60570-5 0  9994
2    59 028.2490 312.0341 0189179 071.7083 290.3947 13.52968257896630
Epoch (UTC): 14 June 2019 18:29:53
Eccentricity: 0.0189179
inclination: 28.2490°
perigee height: 920 km
apogee height: 1202 km
right ascension of ascending node: 312.0341°
argument of perigee: 71.7083°
revolutions per day: 13.52968257
mean anomaly at epoch: 290.3947°
orbit number at epoch: 89663

The dashed part of the orbit path shows where the satellite is in the earth's shadow,  

DLR